• In Romania
  • List of Countries
  • For 7 days
  • Water Temperature
  • Satellite Maps
  • Weather Map
  • Weather Widgets
  • user-avatar
    Login

    Hourly Weather Escaldes-Engordany

    Today, 18 January, Wednesday

    Time Temperature Precipitation Wind Pressure Humidity
    00:00 -14°C° 0 mm 3 mps 635 mmHg 76%
    01:00 -14°C° 0 mm 3 mps 635 mmHg 75%
    02:00 -14°C° 0 mm 3 mps 635 mmHg 75%
    03:00 -14°C° 0 mm 3 mps 635 mmHg 75%
    04:00 -13°C° 0 mm 2 mps 635 mmHg 74%
    05:00 -13°C° 0 mm 2 mps 636 mmHg 74%
    06:00 -13°C° 0 mm 2 mps 635 mmHg 74%
    07:00 -12°C° 0 mm 2 mps 636 mmHg 72%
    08:00 -10°C° 0 mm 2 mps 637 mmHg 69%
    09:00 -9°C° 0 mm 2 mps 637 mmHg 66%
    10:00 -6°C° 0 mm 1 mps 638 mmHg 62%
    11:00 -3°C° 0 mm 1 mps 639 mmHg 58%
    12:00 -1°C° 0 mm 1 mps 639 mmHg 54%
    13:00 -1°C° 0 mm 1 mps 639 mmHg 55%
    14:00 -2°C° 0 mm 1 mps 639 mmHg 57%
    15:00 -2°C° 0 mm 1 mps 639 mmHg 58%
    16:00 -4°C° 0 mm 1 mps 638 mmHg 64%
    17:00 -8°C° 0 mm 1 mps 637 mmHg 70%
    18:00 -10°C° 0 mm 0 mps 636 mmHg 77%
    19:00 -10°C° 0 mm 0 mps 636 mmHg 77%
    20:00 -10°C° 0 mm 0 mps 636 mmHg 78%
    21:00 -10°C° 0 mm 0 mps 637 mmHg 78%
    22:00 -10°C° 0 mm 0 mps 637 mmHg 78%
    23:00 -11°C° 0 mm 0 mps 637 mmHg 77%

    Tomorrow, 19 January, Thursday

    Time Temperature Precipitation Wind Pressure Humidity
    00:00 -11°C° 0 mm 0 mps 637 mmHg 77%
    01:00 -11°C° 0 mm 0 mps 637 mmHg 76%
    02:00 -10°C° 0 mm 0 mps 637 mmHg 75%
    03:00 -10°C° 0 mm 0 mps 637 mmHg 75%
    04:00 -10°C° 0 mm 0 mps 637 mmHg 75%
    05:00 -11°C° 0 mm 1 mps 637 mmHg 75%
    06:00 -11°C° 0 mm 1 mps 637 mmHg 75%
    07:00 -9°C° 0 mm 1 mps 638 mmHg 71%
    08:00 -6°C° 0 mm 1 mps 639 mmHg 67%
    09:00 -3°C° 0 mm 1 mps 640 mmHg 63%
    10:00 -2°C° 0 mm 1 mps 641 mmHg 62%
    11:00 0°C° 0 mm 1 mps 641 mmHg 61%
    12:00 -1°C° 0 mm 2 mps 641 mmHg 60%
    13:00 -1°C° 0 mm 2 mps 641 mmHg 61%
    14:00 -1°C° 0 mm 2 mps 641 mmHg 63%
    15:00 -1°C° 0 mm 2 mps 641 mmHg 64%
    16:00 -4°C° 0 mm 2 mps 640 mmHg 72%
    17:00 -7°C° 0 mm 2 mps 639 mmHg 79%
    18:00 -9°C° 0 mm 1 mps 638 mmHg 86%
    19:00 -9°C° 0 mm 1 mps 638 mmHg 86%
    20:00 -9°C° 0 mm 1 mps 638 mmHg 86%
    21:00 -10°C° 0 mm 2 mps 638 mmHg 86%
    22:00 -10°C° 0 mm 2 mps 638 mmHg 85%
    23:00 -10°C° 0 mm 2 mps 638 mmHg 84%

    Day after tomorrow, 20 January, Friday

    Time Temperature Precipitation Wind Pressure Humidity
    00:00 -10°C° 0 mm 2 mps 638 mmHg 83%
    01:00 -10°C° 0 mm 2 mps 638 mmHg 84%
    02:00 -10°C° 0 mm 2 mps 638 mmHg 84%
    03:00 -10°C° 0 mm 2 mps 638 mmHg 85%
    04:00 -10°C° 0 mm 2 mps 637 mmHg 85%
    05:00 -10°C° 0 mm 2 mps 637 mmHg 85%
    06:00 -10°C° 0 mm 2 mps 637 mmHg 86%
    07:00 -8°C° 0 mm 2 mps 638 mmHg 83%
    08:00 -5°C° 0 mm 2 mps 639 mmHg 80%
    09:00 -3°C° 0 mm 2 mps 640 mmHg 78%
    10:00 -2°C° 0 mm 2 mps 641 mmHg 75%
    11:00 -1°C° 0 mm 2 mps 641 mmHg 73%
    12:00 +1°C° 0 mm 2 mps 641 mmHg 70%
    13:00 +1°C° 0.1 mm 2 mps 641 mmHg 72%
    14:00 +1°C° 0.1 mm 2 mps 641 mmHg 75%
    15:00 +1°C° 0.1 mm 2 mps 640 mmHg 77%
    16:00 -2°C° 0.1 mm 2 mps 640 mmHg 83%
    17:00 -4°C° 0.1 mm 2 mps 639 mmHg 89%
    18:00 -6°C° 0.1 mm 1 mps 638 mmHg 95%
    19:00 -6°C° 0.1 mm 1 mps 638 mmHg 95%
    20:00 -6°C° 0.1 mm 1 mps 638 mmHg 95%
    21:00 -6°C° 0.1 mm 1 mps 638 mmHg 94%
    22:00 -6°C° 0.1 mm 1 mps 638 mmHg 94%
    23:00 -6°C° 0.1 mm 1 mps 638 mmHg 94%

    21 January, Saturday

    Time Temperature Precipitation Wind Pressure Humidity
    00:00 -6°C° 0.1 mm 1 mps 638 mmHg 94%
    01:00 -6°C° 0.1 mm 1 mps 638 mmHg 93%
    02:00 -6°C° 0.1 mm 1 mps 637 mmHg 93%
    03:00 -6°C° 0.1 mm 1 mps 637 mmHg 92%
    04:00 -6°C° 0.1 mm 1 mps 637 mmHg 92%
    05:00 -6°C° 0.1 mm 2 mps 638 mmHg 91%
    06:00 -6°C° 0.1 mm 2 mps 638 mmHg 91%
    07:00 -5°C° 0.1 mm 2 mps 638 mmHg 87%
    08:00 -4°C° 0.1 mm 2 mps 639 mmHg 84%
    09:00 -2°C° 0.1 mm 2 mps 639 mmHg 80%
    10:00 -1°C° 0 mm 2 mps 640 mmHg 76%
    11:00 +1°C° 0 mm 2 mps 640 mmHg 73%
    12:00 +2°C° 0 mm 2 mps 640 mmHg 69%
    13:00 +2°C° 0 mm 2 mps 640 mmHg 70%
    14:00 +3°C° 0 mm 1 mps 639 mmHg 71%
    15:00 +3°C° 0 mm 1 mps 639 mmHg 73%
    16:00 +1°C° 0 mm 1 mps 638 mmHg 78%
    17:00 -1°C° 0 mm 1 mps 638 mmHg 83%
    18:00 -3°C° 0 mm 1 mps 637 mmHg 89%
    19:00 -3°C° 0 mm 1 mps 637 mmHg 88%
    20:00 -3°C° 0 mm 1 mps 637 mmHg 87%
    21:00 -4°C° 0 mm 1 mps 637 mmHg 86%
    22:00 -4°C° 0 mm 1 mps 637 mmHg 84%
    23:00 -4°C° 0 mm 1 mps 636 mmHg 82%

    22 January, Sunday

    Time Temperature Precipitation Wind Pressure Humidity
    00:00 -7°C° 0 mm 2 mps 636 mmHg 80%
    01:00 -7°C° 0 mm 2 mps 636 mmHg 78%
    02:00 -7°C° 0 mm 2 mps 636 mmHg 76%
    03:00 -7°C° 0 mm 2 mps 636 mmHg 74%
    04:00 -7°C° 0 mm 2 mps 636 mmHg 73%
    05:00 -7°C° 0 mm 2 mps 636 mmHg 73%
    06:00 -7°C° 0 mm 2 mps 636 mmHg 73%
    07:00 -6°C° 0 mm 2 mps 637 mmHg 71%
    08:00 -4°C° 0 mm 2 mps 637 mmHg 69%
    09:00 -1°C° 0 mm 1 mps 638 mmHg 67%
    10:00 0°C° 0.2 mm 1 mps 638 mmHg 66%
    11:00 +1°C° 0.2 mm 1 mps 639 mmHg 65%
    12:00 +2°C° 0.2 mm 1 mps 639 mmHg 65%
    13:00 +2°C° 0.2 mm 1 mps 639 mmHg 67%
    14:00 +2°C° 0.2 mm 1 mps 638 mmHg 70%
    15:00 +1°C° 0.2 mm 1 mps 638 mmHg 73%
    16:00 0°C° 0.1 mm 1 mps 638 mmHg 78%
    17:00 -1°C° 0.1 mm 1 mps 637 mmHg 83%
    18:00 -3°C° 0.1 mm 1 mps 637 mmHg 88%
    19:00 -3°C° 0.1 mm 1 mps 637 mmHg 89%
    20:00 -3°C° 0.1 mm 1 mps 637 mmHg 89%
    21:00 -4°C° 0.1 mm 1 mps 637 mmHg 90%
    22:00 -4°C° 0.1 mm 1 mps 637 mmHg 90%
    23:00 -4°C° 0.1 mm 1 mps 637 mmHg 90%

    23 January, Monday

    Time Temperature Precipitation Wind Pressure Humidity
    00:00 -4°C° 0.1 mm 1 mps 637 mmHg 90%
    01:00 -4°C° 0.1 mm 1 mps 636 mmHg 90%
    02:00 -4°C° 0.1 mm 1 mps 636 mmHg 90%
    03:00 -4°C° 0.1 mm 1 mps 636 mmHg 90%
    04:00 -4°C° 0.1 mm 1 mps 636 mmHg 90%
    05:00 -4°C° 0.1 mm 1 mps 636 mmHg 90%
    06:00 -4°C° 0.1 mm 1 mps 637 mmHg 90%
    07:00 -3°C° 0.1 mm 1 mps 637 mmHg 86%
    08:00 -1°C° 0.1 mm 1 mps 638 mmHg 82%
    09:00 0°C° 0.1 mm 1 mps 639 mmHg 78%
    10:00 +1°C° 0.1 mm 1 mps 639 mmHg 74%
    11:00 +2°C° 0.1 mm 1 mps 639 mmHg 71%
    12:00 +3°C° 0.1 mm 1 mps 640 mmHg 68%
    13:00 +3°C° 0.2 mm 1 mps 639 mmHg 69%
    14:00 +3°C° 0.2 mm 1 mps 639 mmHg 70%
    15:00 +3°C° 0.2 mm 1 mps 639 mmHg 71%
    16:00 +1°C° 0.2 mm 1 mps 638 mmHg 77%
    17:00 -1°C° 0.2 mm 1 mps 638 mmHg 84%
    18:00 -4°C° 0.2 mm 1 mps 637 mmHg 91%
    19:00 -4°C° 0.1 mm 1 mps 638 mmHg 91%
    20:00 -4°C° 0.1 mm 1 mps 638 mmHg 91%
    21:00 -4°C° 0.1 mm 1 mps 638 mmHg 91%
    22:00 -4°C° 0 mm 1 mps 638 mmHg 91%
    23:00 -4°C° 0 mm 1 mps 638 mmHg 91%
    Show more